| time (UTC) | temp F | wind direction | speed MPH | gust MPH | rain 1hr in | rain 24hr in | rain mn in | humidity % | barometer mb |
| 20260509105016 | 53 | 0.0 | 0.0 | 0.00 | 0.00 | 0.00 | 79 | 1026.7 | |
| 20260509104018 | 53 | 0.0 | 2.0 | 0.00 | 0.00 | 0.00 | 78 | 1026.6 | |
| 20260509103018 | 53 | 0.0 | 0.0 | 0.00 | 0.00 | 0.00 | 77 | 1026.6 | |
| 20260509102018 | 53 | 0.0 | 2.0 | 0.00 | 0.00 | 0.00 | 77 | 1026.7 | |
| 20260509101018 | 54 | 0.0 | 0.0 | 0.00 | 0.00 | 0.00 | 76 | 1026.6 | |
| 20260509100018 | 54 | 0.0 | 0.0 | 0.00 | 0.00 | 0.00 | 75 | 1026.6 | |
| 20260509095018 | 55 | 0.0 | 0.0 | 0.00 | 0.00 | 0.00 | 75 | 1026.6 | |
| 20260509094018 | 55 | 0.0 | 0.0 | 0.00 | 0.00 | 0.00 | 74 | 1026.7 | |
| 20260509093018 | 55 | 0.0 | 0.0 | 0.00 | 0.00 | 0.00 | 73 | 1026.6 | |
| 20260509092018 | 56 | 0.0 | 0.0 | 0.00 | 0.00 | 0.00 | 73 | 1026.6 | |
| 20260509091018 | 56 | 0.0 | 0.0 | 0.00 | 0.00 | 0.00 | 71 | 1026.6 | |
| 20260509090018 | 57 | 0.0 | 0.0 | 0.00 | 0.00 | 0.00 | 71 | 1026.5 | |
| 20260509085018 | 57 | 0.0 | 0.0 | 0.00 | 0.00 | 0.00 | 69 | 1026.4 | |
| 20260509084018 | 58 | 0.0 | 0.0 | 0.00 | 0.00 | 0.00 | 69 | 1026.3 | |
| 20260509083018 | 58 | 0.0 | 0.0 | 0.00 | 0.00 | 0.00 | 68 | 1026.2 | |
| 20260509082018 | 59 | 0.0 | 0.0 | 0.00 | 0.00 | 0.00 | 67 | 1026.1 | |
| 20260509081018 | 59 | 0.0 | 0.0 | 0.00 | 0.00 | 0.00 | 66 | 1025.9 | |
| 20260509080018 | 60 | 0.0 | 0.0 | 0.00 | 0.00 | 0.00 | 64 | 1025.8 | |
| 20260509075018 | 60 | 0.0 | 0.0 | 0.00 | 0.00 | 0.00 | 63 | 1025.7 | |
| 20260509074018 | 61 | 0.0 | 0.0 | 0.00 | 0.00 | 0.00 | 62 | 1025.7 | |
| 20260509073018 | 62 | 0.0 | 0.0 | 0.00 | 0.00 | 0.00 | 61 | 1025.5 | |
| 20260509072018 | 62 | 0.0 | 0.0 | 0.00 | 0.00 | 0.00 | 60 | 1025.5 | |
| 20260509071018 | 62 | 0.0 | 2.0 | 0.00 | 0.00 | 0.00 | 59 | 1025.4 | |
| 20260509070018 | 63 | 0.0 | 2.0 | 0.00 | 0.00 | 0.00 | 59 | 1025.3 | |
| 20260509065018 | 63 | 0.0 | 2.0 | 0.00 | 0.00 | 0.00 | 58 | 1025.2 | |
| 20260509064018 | 63 | 203 | 1.0 | 2.0 | 0.00 | 0.00 | 0.00 | 57 | 1025.2 |
| 20260509063018 | 64 | 225 | 1.0 | 2.0 | 0.00 | 0.00 | 0.00 | 56 | 1025.1 |
| 20260509062018 | 64 | 270 | 1.0 | 4.0 | 0.00 | 0.00 | 0.00 | 56 | 1025.1 |
| 20260509061018 | 64 | 248 | 1.0 | 6.0 | 0.00 | 0.00 | 0.00 | 55 | 1025.1 |
| 20260509060018 | 64 | 203 | 2.0 | 5.0 | 0.00 | 0.00 | 0.00 | 56 | 1025.1 |
| 20260509055018 | 65 | 270 | 2.0 | 7.0 | 0.00 | 0.00 | 0.00 | 55 | 1025.1 |
| 20260509054018 | 65 | 225 | 1.0 | 6.0 | 0.00 | 0.00 | 0.00 | 56 | 1025.1 |
| 20260509053018 | 65 | 203 | 1.0 | 3.0 | 0.00 | 0.00 | 0.00 | 55 | 1025.1 |
| 20260509052017 | 65 | 203 | 1.0 | 8.0 | 0.00 | 0.00 | 0.00 | 56 | 1025.1 |
| 20260509051018 | 65 | 203 | 1.0 | 3.0 | 0.00 | 0.00 | 0.00 | 56 | 1025.1 |
| 20260509050017 | 65 | 248 | 1.0 | 3.0 | 0.00 | 0.00 | 0.00 | 57 | 1025.1 |
| 20260509045017 | 65 | 225 | 1.0 | 3.0 | 0.00 | 0.00 | 0.00 | 57 | 1025.0 |
| 20260509044017 | 65 | 270 | 2.0 | 5.0 | 0.00 | 0.00 | 0.00 | 56 | 1025.1 |
| 20260509043017 | 65 | 248 | 2.0 | 6.0 | 0.00 | 0.00 | 0.00 | 57 | 1025.1 |
| 20260509042017 | 65 | 225 | 1.0 | 4.0 | 0.00 | 0.00 | 0.00 | 56 | 1025.1 |
| 20260509041748 | 65 | 270 | 2.0 | 7.0 | 0.00 | 0.00 | 0.00 | 58 | 1025.1 |
| 20260509034517 | 64 | 270 | 2.0 | 8.0 | 0.00 | 0.00 | 0.00 | 57 | 1025.3 |
| 20260509033517 | 64 | 203 | 1.0 | 4.0 | 0.00 | 0.00 | 0.00 | 58 | 1025.3 |
| 20260509032517 | 64 | 248 | 2.0 | 3.0 | 0.00 | 0.00 | 0.00 | 58 | 1025.5 |
| 20260509031517 | 64 | 180 | 2.0 | 6.0 | 0.00 | 0.00 | 0.00 | 60 | 1025.6 |
| 20260509030517 | 64 | 248 | 2.0 | 6.0 | 0.00 | 0.00 | 0.00 | 61 | 1025.6 |
| 20260509025517 | 64 | 248 | 2.0 | 7.0 | 0.00 | 0.00 | 0.00 | 60 | 1025.7 |
| 20260509024517 | 63 | 203 | 1.0 | 3.0 | 0.00 | 0.00 | 0.00 | 62 | 1025.9 |
| 20260509023517 | 63 | 203 | 2.0 | 5.0 | 0.00 | 0.00 | 0.00 | 61 | 1026.0 |
| 20260509022517 | 63 | 248 | 2.0 | 8.0 | 0.00 | 0.00 | 0.00 | 62 | 1026.2 |
| 20260509021517 | 62 | 270 | 2.0 | 4.0 | 0.00 | 0.00 | 0.00 | 62 | 1026.4 |
| 20260509020517 | 62 | 203 | 2.0 | 6.0 | 0.00 | 0.00 | 0.00 | 65 | 1026.6 |
| 20260509015517 | 62 | 180 | 3.0 | 6.0 | 0.00 | 0.00 | 0.00 | 64 | 1026.7 |
| 20260509014517 | 61 | 225 | 2.0 | 6.0 | 0.00 | 0.00 | 0.00 | 65 | 1026.9 |
| 20260509013517 | 61 | 225 | 1.0 | 3.0 | 0.00 | 0.00 | 0.00 | 65 | 1027.0 |
| 20260509012517 | 60 | 248 | 2.0 | 8.0 | 0.00 | 0.00 | 0.00 | 66 | 1027.0 |
| 20260509011517 | 60 | 180 | 2.0 | 5.0 | 0.00 | 0.00 | 0.00 | 68 | 1027.2 |
| 20260509010517 | 60 | 248 | 3.0 | 10.0 | 0.00 | 0.00 | 0.00 | 69 | 1027.4 |
| 20260509005517 | 59 | 203 | 4.0 | 8.0 | 0.00 | 0.00 | 0.00 | 70 | 1027.4 |
| 20260509004517 | 59 | 203 | 2.0 | 7.0 | 0.00 | 0.00 | 0.00 | 70 | 1027.3 |
| 20260509003517 | 59 | 203 | 4.0 | 9.0 | 0.00 | 0.00 | 0.00 | 73 | 1027.4 |
| 20260509002517 | 58 | 180 | 2.0 | 6.0 | 0.00 | 0.00 | 0.00 | 74 | 1027.4 |
| 20260509001517 | 58 | 203 | 3.0 | 6.0 | 0.00 | 0.00 | 0.00 | 75 | 1027.5 |
| 20260509000517 | 57 | 203 | 3.0 | 9.0 | 0.00 | 0.00 | 0.00 | 76 | 1027.5 |
| 20260508235517 | 56 | 203 | 2.0 | 6.0 | 0.00 | 0.00 | 0.00 | 79 | 1027.5 |
| 20260508234517 | 55 | 203 | 2.0 | 5.0 | 0.00 | 0.00 | 0.00 | 81 | 1027.5 |
| 20260508233517 | 54 | 203 | 1.0 | 4.0 | 0.00 | 0.00 | 0.00 | 83 | 1027.6 |
| 20260508232517 | 53 | 203 | 1.0 | 4.0 | 0.00 | 0.00 | 0.00 | 86 | 1027.6 |
| 20260508231517 | 52 | 203 | 1.0 | 4.0 | 0.00 | 0.00 | 0.00 | 89 | 1027.6 |
| 20260508230517 | 50 | 203 | 1.0 | 4.0 | 0.00 | 0.00 | 0.00 | 92 | 1027.5 |
| 20260508225517 | 49 | 203 | 1.0 | 4.0 | 0.00 | 0.00 | 0.00 | 94 | 1027.5 |
| 20260508224517 | 48 | 0.0 | 2.0 | 0.00 | 0.00 | 0.00 | 94 | 1027.5 | |
| 20260508223517 | 47 | 270 | 1.0 | 2.0 | 0.00 | 0.00 | 0.00 | 94 | 1027.4 |
| 20260508222517 | 46 | 0.0 | 3.0 | 0.00 | 0.00 | 0.00 | 94 | 1027.2 | |
| 20260508221517 | 46 | 0.0 | 2.0 | 0.00 | 0.00 | 0.00 | 93 | 1027.1 | |
| 20260508220517 | 45 | 270 | 1.0 | 2.0 | 0.00 | 0.00 | 0.00 | 93 | 1027.0 |
| 20260508215517 | 45 | 270 | 1.0 | 2.0 | 0.00 | 0.00 | 0.00 | 93 | 1026.8 |
| 20260508214516 | 44 | 0.0 | 1.0 | 0.00 | 0.00 | 0.00 | 92 | 1026.7 | |
| 20260508213516 | 44 | 0.0 | 2.0 | 0.00 | 0.00 | 0.00 | 92 | 1026.6 | |
| 20260508212516 | 44 | 0.0 | 2.0 | 0.00 | 0.00 | 0.00 | 92 | 1026.4 | |
| 20260508211516 | 44 | 0.0 | 2.0 | 0.00 | 0.00 | 0.00 | 92 | 1026.3 | |
| 20260508210516 | 44 | 0.0 | 1.0 | 0.00 | 0.00 | 0.00 | 92 | 1026.1 | |
| 20260508205516 | 44 | 0.0 | 2.0 | 0.00 | 0.00 | 0.00 | 92 | 1026.0 | |
| 20260508204518 | 44 | 270 | 2.0 | 3.0 | 0.00 | 0.00 | 0.00 | 92 | 1025.9 |
| 20260508203518 | 44 | 270 | 1.0 | 2.0 | 0.00 | 0.00 | 0.00 | 92 | 1025.8 |
| 20260508202518 | 44 | 0.0 | 2.0 | 0.00 | 0.00 | 0.00 | 91 | 1025.7 | |
| 20260508201518 | 44 | 270 | 1.0 | 3.0 | 0.00 | 0.00 | 0.00 | 91 | 1025.5 |
| 20260508200518 | 44 | 270 | 1.0 | 2.0 | 0.00 | 0.00 | 0.00 | 91 | 1025.5 |
| 20260508195518 | 44 | 0.0 | 1.0 | 0.00 | 0.00 | 0.00 | 91 | 1025.4 | |
| 20260508194518 | 44 | 0.0 | 1.0 | 0.00 | 0.00 | 0.00 | 91 | 1025.3 | |
| 20260508193518 | 44 | 270 | 1.0 | 3.0 | 0.00 | 0.00 | 0.00 | 91 | 1025.1 |
| 20260508192518 | 45 | 270 | 1.0 | 2.0 | 0.00 | 0.00 | 0.00 | 90 | 1025.2 |
| 20260508191519 | 45 | 0.0 | 1.0 | 0.00 | 0.00 | 0.00 | 90 | 1025.2 | |
| 20260508190519 | 45 | 270 | 2.0 | 3.0 | 0.00 | 0.00 | 0.00 | 90 | 1025.2 |
| 20260508185518 | 46 | 270 | 1.0 | 1.0 | 0.00 | 0.00 | 0.00 | 90 | 1025.2 |
| 20260508184518 | 46 | 270 | 2.0 | 3.0 | 0.00 | 0.00 | 0.00 | 90 | 1025.1 |
| 20260508183518 | 46 | 0.0 | 2.0 | 0.00 | 0.00 | 0.00 | 89 | 1025.1 | |
| 20260508182518 | 46 | 270 | 1.0 | 3.0 | 0.00 | 0.00 | 0.00 | 90 | 1025.1 |
| 20260508181518 | 46 | 270 | 2.0 | 3.0 | 0.00 | 0.00 | 0.00 | 90 | 1025.1 |
| 20260508180518 | 47 | 270 | 2.0 | 2.0 | 0.00 | 0.00 | 0.00 | 90 | 1025.1 |
| 20260508175518 | 47 | 0.0 | 2.0 | 0.00 | 0.00 | 0.00 | 89 | 1025.2 | |
| 20260508174518 | 47 | 0.0 | 2.0 | 0.00 | 0.00 | 0.00 | 89 | 1025.1 | |
| 20260508173518 | 47 | 270 | 1.0 | 3.0 | 0.00 | 0.00 | 0.00 | 89 | 1025.1 |
| 20260508172518 | 48 | 270 | 1.0 | 2.0 | 0.00 | 0.00 | 0.00 | 89 | 1025.2 |
| 20260508171518 | 48 | 270 | 2.0 | 3.0 | 0.00 | 0.00 | 0.00 | 89 | 1025.3 |
| 20260508170518 | 48 | 0.0 | 2.0 | 0.00 | 0.00 | 0.00 | 87 | 1025.4 | |
| 20260508165518 | 48 | 0.0 | 2.0 | 0.00 | 0.00 | 0.00 | 88 | 1025.4 | |
| 20260508164518 | 48 | 270 | 2.0 | 3.0 | 0.00 | 0.00 | 0.00 | 88 | 1025.4 |
| 20260508163518 | 48 | 270 | 2.0 | 3.0 | 0.00 | 0.00 | 0.00 | 88 | 1025.4 |
| 20260508162518 | 48 | 270 | 2.0 | 3.0 | 0.00 | 0.00 | 0.00 | 88 | 1025.4 |
| 20260508161518 | 49 | 270 | 1.0 | 2.0 | 0.00 | 0.00 | 0.00 | 88 | 1025.4 |
| 20260508160518 | 49 | 0.0 | 2.0 | 0.00 | 0.00 | 0.00 | 88 | 1025.4 | |
| 20260508155518 | 49 | 270 | 1.0 | 2.0 | 0.00 | 0.00 | 0.00 | 88 | 1025.4 |
| 20260508154518 | 49 | 270 | 2.0 | 2.0 | 0.00 | 0.00 | 0.00 | 88 | 1025.4 |
| 20260508153518 | 49 | 270 | 2.0 | 3.0 | 0.00 | 0.00 | 0.00 | 87 | 1025.3 |
| 20260508152517 | 49 | 270 | 2.0 | 4.0 | 0.00 | 0.00 | 0.00 | 87 | 1025.2 |
| 20260508151518 | 50 | 270 | 1.0 | 3.0 | 0.00 | 0.00 | 0.00 | 87 | 1025.2 |
| 20260508150517 | 50 | 270 | 2.0 | 4.0 | 0.00 | 0.00 | 0.00 | 87 | 1025.2 |
| 20260508145517 | 50 | 270 | 2.0 | 3.0 | 0.00 | 0.00 | 0.00 | 86 | 1025.3 |
| 20260508144517 | 50 | 270 | 1.0 | 2.0 | 0.00 | 0.00 | 0.00 | 86 | 1025.2 |
| 20260508143517 | 50 | 270 | 2.0 | 3.0 | 0.00 | 0.00 | 0.00 | 86 | 1025.1 |
| 20260508142517 | 50 | 270 | 2.0 | 5.0 | 0.00 | 0.00 | 0.00 | 86 | 1025.1 |
| 20260508141517 | 50 | 270 | 2.0 | 4.0 | 0.00 | 0.00 | 0.00 | 86 | 1024.8 |
| 20260508140517 | 50 | 270 | 2.0 | 4.0 | 0.00 | 0.00 | 0.00 | 86 | 1024.8 |
| 20260508135517 | 50 | 270 | 3.0 | 6.0 | 0.00 | 0.00 | 0.00 | 86 | 1024.8 |
| 20260508134517 | 50 | 270 | 2.0 | 3.0 | 0.00 | 0.00 | 0.00 | 86 | 1024.9 |
| 20260508133517 | 50 | 270 | 3.0 | 4.0 | 0.00 | 0.00 | 0.00 | 85 | 1024.9 |
| 20260508132517 | 49 | 270 | 3.0 | 4.0 | 0.00 | 0.00 | 0.00 | 85 | 1025.1 |
| 20260508131517 | 49 | 270 | 1.0 | 2.0 | 0.00 | 0.00 | 0.00 | 84 | 1025.2 |
| 20260508130517 | 50 | 270 | 2.0 | 3.0 | 0.00 | 0.00 | 0.00 | 83 | 1025.2 |
| 20260508125517 | 50 | 270 | 1.0 | 2.0 | 0.00 | 0.00 | 0.00 | 83 | 1025.3 |
| 20260508124517 | 50 | 270 | 2.0 | 4.0 | 0.00 | 0.00 | 0.00 | 83 | 1025.3 |
| 20260508123517 | 50 | 270 | 1.0 | 2.0 | 0.00 | 0.00 | 0.00 | 83 | 1025.3 |
| 20260508122517 | 50 | 270 | 1.0 | 2.0 | 0.00 | 0.00 | 0.00 | 83 | 1025.4 |
| 20260508121517 | 50 | 0.0 | 2.0 | 0.00 | 0.00 | 0.00 | 82 | 1025.5 | |
| 20260508120517 | 50 | 270 | 1.0 | 1.0 | 0.00 | 0.00 | 0.00 | 82 | 1025.4 |
| 20260508115517 | 51 | 0.0 | 1.0 | 0.00 | 0.00 | 0.00 | 81 | 1025.3 | |
| 20260508114517 | 51 | 0.0 | 2.0 | 0.00 | 0.00 | 0.00 | 80 | 1025.3 | |
| 20260508113517 | 52 | 0.0 | 2.0 | 0.00 | 0.00 | 0.00 | 80 | 1025.1 | |
| 20260508112517 | 52 | 0.0 | 2.0 | 0.00 | 0.00 | 0.00 | 79 | 1025.1 | |
| 20260508111517 | 53 | 0.0 | 1.0 | 0.00 | 0.00 | 0.00 | 78 | 1025.1 | |
| 20260508110517 | 52 | 270 | 1.0 | 2.0 | 0.00 | 0.00 | 0.00 | 79 | 1024.9 |
| 20260508105517 | 52 | 270 | 1.0 | 3.0 | 0.00 | 0.00 | 0.00 | 79 | 1024.8 |